SCP
0 0 0 0 0 0 0 0 0 0 0 0 0 0 0 0 0 0 0 0 0 0 0 0 0 0 0 0 0 0 0 0 0 0 0 0 0 0 0 0 0 0 0
0 0 0 0 0 0 0 0 0 0 0 0 0 0 0 0 0 0 0 0 0 0 0 0 0 0 0 0 0 0 0 0 0 0 0 0 0 0 0 0 0 0 0
0 0 0 0 0 0 0 0 0 0 0 0 0 0 0 0 0 0 0 0 0 0 0 0 0 0 0 0 0 0 0 0 0 0 0 0 0 0 0 0 0 0 0
0 0 0 0 0 0 0 0 0 0 0 0 0 0 0 0 0 0 0 0 0 0 0 0 0 0 0 0 0 0 0 0 0 0 0 0 0 0 0 0 0 0 0
0 0 0 0 0 0 0 0 0 0 0 0 0 0 0 0 0 0 0 0 0 0 0 0 0 0 0 0 0 0 0 0 0 0 0 0 0 0 0 0 0 0 0
0 0 0 0 0 0 0 0 0 0 0 0 0 0 0 0 0 0 0 0 0 0 0 0 0 0 0 0 0 0 0 0 0 0 0 0 0 0 0 0 0 0 0
0 0 0 0 0 0 0 0 0 0 0 0 0 0 0 0 0 0 0 0 0 0 0 0 0 0 0 0 0 0 0 0 0 0 0 0 0 0 0 0 0 0 0
0 0 0 0 0 0 0 0 0 0 0 0 0 0 0 0 0 0 0 0 0 0 0 0 0 0 0 0 0 0 0 0 0 0 0 0 0 0 0 0 0 0 0
0 0 0 0 0 0 0 0 0 0 0 0 0 0 0 0 0 0 0 0 0 0 0 0 0 0 0 0 0 0 0 0 0 0 0 0 0 0 0 0 0 0 0
0 0 0 0 0 0 0 0 0 0 0 0 0 0 0 0 0 0 0 0 0 0 0 0 0 0 0 0 0 0 0 0 0 0 0 0 0 0 0 0 0 0 0
0 0 0 0 0 0 0 0 0 0 0 0 0 0 0 0 0 0 0 0 0 0 0 0 0 0 0 0 0 0 0 0 0 0 0 0 0 0 0 0 0 0 0
0 0 0 0 0 0 0 0 0 0 0 0 0 0 0 0 0 0 0 0 0 0 0 0 0 0 0 0 0 0 0 0 0 0 0 0 0 0 0 0 0 0 0
0 0 0 0 0 0 0 0 0 0 0 0 0 0 0 0 0 0 0 0 0 0 0 0 0 0 0 0 0 0 0 0 0 0 0 0 0 0 0 0 0 0 0
0 0 0 0 0 0 0 0 0 0 0 0 0 0 0 0 0 0 0 0 0 0 0 0 0 0 0 0 0 0 0 0 0 0 0 0 0 0 0 0 0 0 0
0 0 0 0 0 0 0 0 0 0 0 0 0 0 0 0 0 0 0 0 0 0 0 0 0 0 0 0 0 0 0 0 0 0 0 0 0 0 0 0 0 0 0
0 0 0 0 0 0 0 0 0 0 0 0 0 0 0 0 0 0 0 0 0 0 0 0 0 0 0 0 0 0 0 0 0 0 0 0 0 0 0 0 0 0 0
0 0 0 0 0 0 0 0 0 0 0 0 0 0 0 0 0 0 0 0 0 0 0 0 0 0 0 0 0 0 0 0 0 0 0 0 0 0 0 0 0 0 0
0 0 0 0 0 0 0 0 0 0 0 0 0 0 0 0 0 0 0 0 0 0 0 0 0 0 0 0 0 0 0 0 0 0 0 0 0 0 0 0 0 0 0
0 0 0 0 0 0 0 0 0 0 0 0 0 0 0 0 0 0 0 0 0 0 0 0 0 0 0 0 0 0 0 0 0 0 0 0 0 0 0 0 0 0 0
0 0 0 0 0 0 0 0 0 0 0 0 0 0 0 0 0 0 0 0 0 0 0 0 0 0 0 0 0 0 0 0 0 0 0 0 0 0 0 0 0 0 0
0 0 0 0 0 0 0 0 0 0 0 0 0 0 0 0 0 0 0 0 0 0 0 0 0 0 0 0 0 0 0 0 0 0 0 0 0 0 0 0 0 0 0
0 0 0 0 0 0 0 0 0 0 0 0 0 0 0 0 0 0 0 0 0 0 0 0 0 0 0 0 0 0 0 0 0 0 0 0 0 0 0 0 0 0 0
0 0 0 0 0 0 0 0 0 0 0 0 0 0 0 0 0 0 0 0 0 0 0 0 0 0 0 0 0 0 0 0 0 0 0 0 0 0 0 0 0 0 0
0 0 0 0 0 0 0 0 0 0 0 0 0 0 0 0 0 0 0 0 0 0 0 0 0 0 0 0 0 0 0 0 0 0 0 0 0 0 0 0 0 0 0
0 0 0 0 0 0 0 0 0 0 0 0 0 0 0 0 0 0 0 0 0 0 0 0 0 0 0 0 0 0 0 0 0 0 0 0 0 0 0 0 0 0 0
0 0 0 0 0 0 0 0 0 0 0 0 0 0 0 0 0 0 0 0 0 0 0 0 0 0 0 0 0 0 0 0 0 0 0 0 0 0 0 0 0 0 0
Wind_Speed_500mb
23 24 25 28 30 31 33 34 35 36 37 37 37 37 35 34 34 35 34 30 29 27 24 20 23 23 20 21 26 31 33 37 36 35 32 32 33 34 38 41 56 53 51
28 29 30 31 33 36 37 38 38 39 40 41 40 40 39 39 38 38 37 35 30 27 22 23 23 24 25 27 30 34 37 38 35 32 36 38 31 29 23 27 32 39 37
37 39 40 41 41 44 42 44 45 42 41 41 41 40 42 43 42 40 37 34 22 23 22 25 27 27 30 30 31 33 37 38 37 37 29 23 23 22 23 23 22 24 23
47 50 52 52 51 54 52 51 49 50 49 48 45 44 41 36 33 32 29 23 23 24 28 31 34 38 35 31 33 24 33 38 35 35 28 26 20 16 17 17 21 25 23
52 56 58 58 58 61 61 57 55 51 48 48 51 48 47 44 42 37 31 32 37 39 42 42 43 41 38 33 31 36 41 39 36 29 23 20 20 22 24 25 28 27 23
53 56 60 63 64 64 63 62 59 53 48 46 46 45 49 48 45 44 41 44 49 51 49 50 47 44 41 39 41 40 40 35 29 20 20 21 21 24 25 27 28 29 27
57 61 62 65 62 60 58 57 55 52 54 52 57 52 51 54 55 57 56 56 59 54 50 47 42 40 40 37 33 33 31 27 22 22 25 24 27 27 26 26 27 27 28
60 62 62 59 57 54 50 50 51 52 55 50 54 44 33 29 40 44 47 48 48 46 37 36 37 36 35 31 32 28 27 23 22 24 24 23 22 20 16 16 15 16 18
59 57 56 54 52 50 48 45 47 54 55 50 49 40 18 20 24 27 26 36 38 39 38 36 38 37 36 31 27 24 20 21 20 18 12 9 8 8 10 11 15 18 20
54 53 51 48 44 43 44 48 51 54 53 55 45 46 50 44 28 17 31 50 53 49 49 47 44 38 33 29 24 21 19 15 9 6 4 2 4 7 11 14 16 18 19
47 49 46 40 37 38 42 48 52 54 57 61 59 54 55 55 47 37 32 43 37 51 51 42 42 39 33 28 24 18 15 12 10 6 4 2 3 7 9 11 14 17 21
42 41 38 34 34 38 40 43 49 53 49 56 57 57 55 50 54 52 46 47 51 51 50 49 40 37 31 26 21 20 18 16 12 10 7 3 2 4 8 12 14 17 19
38 37 35 35 37 40 43 45 49 52 51 55 57 53 50 55 51 51 56 53 56 53 42 45 44 31 29 27 25 24 21 18 14 11 7 3 2 5 8 11 13 16 19
38 38 39 36 39 43 46 49 46 47 48 53 54 52 53 53 54 55 60 68 55 46 50 40 40 34 33 30 29 27 23 19 15 11 8 6 5 5 6 11 14 17 20
41 43 46 46 45 47 50 53 54 57 56 58 61 64 64 62 60 56 54 61 64 51 52 45 38 44 40 36 34 31 26 22 19 17 13 10 7 8 11 13 15 17 20
48 50 53 54 55 56 56 58 60 60 61 63 65 65 62 58 53 51 52 52 53 54 41 54 57 53 49 41 37 33 30 26 23 20 15 11 10 9 11 13 16 18 21
56 58 59 60 61 63 62 61 60 59 57 57 54 53 53 52 52 51 51 55 58 58 53 47 53 55 53 46 41 37 31 28 25 21 18 14 14 13 12 14 17 21 25
62 64 65 66 67 65 64 62 60 57 54 52 50 50 50 50 51 51 50 51 55 59 59 54 55 60 56 49 41 36 31 27 25 22 18 14 12 12 15 18 22 28 32
67 68 70 70 68 67 65 62 60 58 55 53 52 52 52 51 52 51 51 52 53 54 56 54 54 63 60 53 44 38 33 28 25 23 20 14 13 14 18 20 24 31 34
72 72 73 73 72 71 69 67 65 62 59 59 58 57 56 55 54 52 51 51 49 48 48 48 54 60 58 52 45 39 34 28 24 23 20 14 14 18 19 20 25 33 35
74 76 77 78 77 76 74 73 70 67 65 64 63 61 60 60 59 56 51 49 48 50 49 50 52 53 52 50 46 41 37 32 27 26 24 18 17 19 19 21 27 34 36
71 76 78 79 80 79 77 74 73 72 70 68 66 64 62 61 60 58 57 54 52 49 50 50 52 51 49 46 43 39 37 34 28 29 27 20 18 20 21 22 28 35 38
66 72 77 80 80 79 79 75 75 72 71 70 70 67 65 61 56 55 58 58 54 53 52 49 48 49 45 41 37 35 32 29 24 20 20 17 16 19 23 25 30 35 37
66 66 70 75 77 79 75 72 75 71 71 72 71 67 66 63 59 57 50 47 47 46 51 50 45 43 42 37 34 30 28 25 23 19 18 18 19 22 25 26 30 34 33
75 69 66 70 73 73 73 66 70 70 66 70 69 66 66 64 59 55 46 43 44 45 45 44 42 40 37 34 30 26 22 20 20 21 22 20 19 21 22 21 26 30 38
74 77 78 70 73 78 78 71 75 76 62 64 64 65 64 61 58 58 46 48 47 43 40 37 38 35 33 29 25 22 19 16 16 17 19 20 21 18 12 17 21 34 35
Wind_Direction_500mb
274 274 277 278 280 278 277 274 272 271 270 269 270 272 274 275 276 278 280 279 279 279 279 278 268 269 269 273 280 284 287 291 293 296 295 298 297 297 289 288 281 278 280
275 275 276 277 279 279 276 273 271 270 269 270 271 273 274 273 273 273 277 278 277 277 267 255 259 263 270 279 285 284 286 289 297 297 297 300 296 299 301 290 296 294 297
274 275 274 275 278 279 276 273 269 268 272 275 276 278 277 274 272 274 278 275 273 256 250 256 261 265 279 289 283 283 282 284 286 288 300 307 307 301 304 302 315 316 307
275 275 277 279 279 275 273 270 269 270 268 271 275 276 279 280 281 286 290 268 257 258 258 256 258 263 267 268 269 275 275 281 284 294 304 304 302 310 308 306 301 304 311
279 277 277 278 277 274 270 267 266 266 269 273 273 275 274 273 276 275 273 263 259 260 264 266 264 265 268 267 260 258 273 278 291 299 294 285 286 297 302 300 296 302 309
278 277 278 279 277 272 268 263 260 265 264 268 272 270 271 271 268 267 263 257 259 260 262 264 262 258 256 256 251 253 268 287 289 285 284 288 298 297 299 296 298 303 303
277 278 278 280 275 272 267 262 256 256 261 260 266 266 266 266 265 261 261 258 257 260 254 259 249 253 245 243 248 258 267 275 282 283 289 294 297 299 298 299 300 304 308
279 278 279 279 276 271 265 260 255 257 262 260 262 268 268 268 267 260 260 254 255 255 240 235 235 236 233 239 254 255 265 281 283 284 287 292 297 300 311 326 333 338 342
280 280 280 277 271 265 260 257 253 256 260 263 257 253 265 244 250 250 232 237 231 221 223 229 236 233 242 241 243 253 271 276 279 279 285 293 309 321 341 353 357 355 347
284 283 280 273 267 259 252 250 250 255 258 260 261 258 258 259 249 229 221 199 201 215 223 224 224 232 231 233 242 257 260 259 253 242 251 316 356 359 4 3 358 354 357
287 286 281 270 263 258 254 253 253 255 258 261 257 264 261 260 256 244 230 220 208 204 205 210 224 223 227 234 244 243 230 212 200 179 158 135 21 14 6 5 4 0 357
288 286 276 268 263 260 260 261 261 262 258 264 264 261 253 254 256 246 233 221 211 211 212 212 214 218 226 230 227 214 200 188 178 177 179 158 33 16 17 14 10 8 7
288 291 285 270 266 268 266 266 264 262 260 264 265 261 252 251 256 259 239 232 219 219 210 210 214 212 220 215 207 204 195 190 189 193 191 215 330 2 8 5 359 357 358
284 288 289 282 273 269 268 271 265 260 260 264 266 263 263 261 260 254 249 240 222 216 210 210 209 211 215 208 202 199 196 195 198 207 215 242 277 305 329 344 348 349 348
283 286 287 285 279 275 273 270 267 267 266 266 267 269 268 264 260 255 246 255 237 216 214 217 213 215 210 205 201 201 200 200 208 210 215 233 261 308 328 335 336 338 337
281 282 283 284 283 280 277 274 272 270 268 266 265 263 261 258 251 247 245 244 236 234 215 222 219 216 209 205 204 202 202 203 212 217 224 241 259 283 300 315 328 331 328
283 282 282 282 281 280 278 275 272 270 267 264 260 257 255 255 254 251 245 241 237 231 231 225 221 213 208 204 203 205 206 211 216 223 227 236 256 272 291 311 320 323 323
283 281 280 279 280 280 278 277 274 270 265 262 259 257 256 254 252 250 246 240 235 231 229 226 215 206 203 203 203 205 208 214 221 222 226 237 261 291 310 321 325 323 326
286 283 279 277 277 276 274 272 268 265 262 260 259 258 257 255 253 250 245 239 233 227 223 225 209 204 203 200 201 203 208 213 218 223 235 248 276 293 303 310 314 312 315
282 282 280 278 277 275 272 269 265 262 260 259 258 256 254 252 250 247 243 237 231 226 220 216 210 205 204 201 201 204 209 216 218 224 232 251 269 277 286 297 300 300 303
281 280 278 277 275 273 271 267 263 260 258 258 256 254 251 248 246 244 239 235 230 224 219 213 208 205 204 203 203 206 215 218 219 222 229 243 256 262 271 284 294 295 296
287 281 277 275 274 272 270 267 264 261 259 256 255 253 250 247 244 241 237 232 227 222 220 214 211 211 212 212 212 212 217 219 212 216 225 233 244 249 266 283 286 287 288
293 286 280 274 272 272 272 271 266 262 259 256 252 248 244 240 238 238 238 237 234 232 226 219 219 215 216 217 222 220 224 232 236 229 237 242 243 255 273 284 283 282 281
293 289 285 279 273 271 271 270 268 264 259 256 251 246 243 238 232 227 224 222 222 228 228 225 221 219 221 220 222 226 230 239 249 254 254 259 238 253 272 278 272 265 270
290 283 281 278 275 275 270 267 267 263 257 255 250 244 238 235 233 233 226 222 215 214 215 216 216 217 216 216 219 224 229 240 251 262 268 266 266 272 273 257 248 248 292
291 288 282 274 271 271 271 261 261 264 256 249 245 242 240 237 236 230 227 237 226 217 215 213 212 212 211 210 212 218 218 230 252 272 259 280 290 294 285 252 223 279 295
Wind_Speed_850mb
23 24 25 28 30 31 33 34 35 36 37 37 37 37 35 34 34 35 34 30 29 27 24 20 23 23 20 21 26 31 33 37 36 35 32 32 33 34 38 41 56 53 51
28 29 30 31 33 36 37 38 38 39 40 41 40 40 39 39 38 38 37 35 30 27 22 23 23 24 25 27 30 34 37 38 35 32 36 38 31 29 23 27 32 39 37
37 39 40 41 41 44 42 44 45 42 41 41 41 40 42 43 42 40 37 34 22 23 22 25 27 27 30 30 31 33 37 38 37 37 29 23 23 22 23 23 22 24 23
47 50 52 52 51 54 52 51 49 50 49 48 45 44 41 36 33 32 29 23 23 24 28 31 34 38 35 31 33 24 33 38 35 35 28 26 20 16 17 17 21 25 23
52 56 58 58 58 61 61 57 55 51 48 48 51 48 47 44 42 37 31 32 37 39 42 42 43 41 38 33 31 36 41 39 36 29 23 20 20 22 24 25 28 27 23
53 56 60 63 64 64 63 62 59 53 48 46 46 45 49 48 45 44 41 44 49 51 49 50 47 44 41 39 41 40 40 35 29 20 20 21 21 24 25 27 28 29 27
57 61 62 65 62 60 58 57 55 52 54 52 57 52 51 54 55 57 56 56 59 54 50 47 42 40 40 37 33 33 31 27 22 22 25 24 27 27 26 26 27 27 28
60 62 62 59 57 54 50 50 51 52 55 50 54 44 33 29 40 44 47 48 48 46 37 36 37 36 35 31 32 28 27 23 22 24 24 23 22 20 16 16 15 16 18
59 57 56 54 52 50 48 45 47 54 55 50 49 40 18 20 24 27 26 36 38 39 38 36 38 37 36 31 27 24 20 21 20 18 12 9 8 8 10 11 15 18 20
54 53 51 48 44 43 44 48 51 54 53 55 45 46 50 44 28 17 31 50 53 49 49 47 44 38 33 29 24 21 19 15 9 6 4 2 4 7 11 14 16 18 19
47 49 46 40 37 38 42 48 52 54 57 61 59 54 55 55 47 37 32 43 37 51 51 42 42 39 33 28 24 18 15 12 10 6 4 2 3 7 9 11 14 17 21
42 41 38 34 34 38 40 43 49 53 49 56 57 57 55 50 54 52 46 47 51 51 50 49 40 37 31 26 21 20 18 16 12 10 7 3 2 4 8 12 14 17 19
38 37 35 35 37 40 43 45 49 52 51 55 57 53 50 55 51 51 56 53 56 53 42 45 44 31 29 27 25 24 21 18 14 11 7 3 2 5 8 11 13 16 19
38 38 39 36 39 43 46 49 46 47 48 53 54 52 53 53 54 55 60 68 55 46 50 40 40 34 33 30 29 27 23 19 15 11 8 6 5 5 6 11 14 17 20
41 43 46 46 45 47 50 53 54 57 56 58 61 64 64 62 60 56 54 61 64 51 52 45 38 44 40 36 34 31 26 22 19 17 13 10 7 8 11 13 15 17 20
48 50 53 54 55 56 56 58 60 60 61 63 65 65 62 58 53 51 52 52 53 54 41 54 57 53 49 41 37 33 30 26 23 20 15 11 10 9 11 13 16 18 21
56 58 59 60 61 63 62 61 60 59 57 57 54 53 53 52 52 51 51 55 58 58 53 47 53 55 53 46 41 37 31 28 25 21 18 14 14 13 12 14 17 21 25
62 64 65 66 67 65 64 62 60 57 54 52 50 50 50 50 51 51 50 51 55 59 59 54 55 60 56 49 41 36 31 27 25 22 18 14 12 12 15 18 22 28 32
67 68 70 70 68 67 65 62 60 58 55 53 52 52 52 51 52 51 51 52 53 54 56 54 54 63 60 53 44 38 33 28 25 23 20 14 13 14 18 20 24 31 34
72 72 73 73 72 71 69 67 65 62 59 59 58 57 56 55 54 52 51 51 49 48 48 48 54 60 58 52 45 39 34 28 24 23 20 14 14 18 19 20 25 33 35
74 76 77 78 77 76 74 73 70 67 65 64 63 61 60 60 59 56 51 49 48 50 49 50 52 53 52 50 46 41 37 32 27 26 24 18 17 19 19 21 27 34 36
71 76 78 79 80 79 77 74 73 72 70 68 66 64 62 61 60 58 57 54 52 49 50 50 52 51 49 46 43 39 37 34 28 29 27 20 18 20 21 22 28 35 38
66 72 77 80 80 79 79 75 75 72 71 70 70 67 65 61 56 55 58 58 54 53 52 49 48 49 45 41 37 35 32 29 24 20 20 17 16 19 23 25 30 35 37
66 66 70 75 77 79 75 72 75 71 71 72 71 67 66 63 59 57 50 47 47 46 51 50 45 43 42 37 34 30 28 25 23 19 18 18 19 22 25 26 30 34 33
75 69 66 70 73 73 73 66 70 70 66 70 69 66 66 64 59 55 46 43 44 45 45 44 42 40 37 34 30 26 22 20 20 21 22 20 19 21 22 21 26 30 38
74 77 78 70 73 78 78 71 75 76 62 64 64 65 64 61 58 58 46 48 47 43 40 37 38 35 33 29 25 22 19 16 16 17 19 20 21 18 12 17 21 34 35
Wind_Direction_850mb
274 274 277 278 280 278 277 274 272 271 270 269 270 272 274 275 276 278 280 279 279 279 279 278 268 269 269 273 280 284 287 291 293 296 295 298 297 297 289 288 281 278 280
275 275 276 277 279 279 276 273 271 270 269 270 271 273 274 273 273 273 277 278 277 277 267 255 259 263 270 279 285 284 286 289 297 297 297 300 296 299 301 290 296 294 297
274 275 274 275 278 279 276 273 269 268 272 275 276 278 277 274 272 274 278 275 273 256 250 256 261 265 279 289 283 283 282 284 286 288 300 307 307 301 304 302 315 316 307
275 275 277 279 279 275 273 270 269 270 268 271 275 276 279 280 281 286 290 268 257 258 258 256 258 263 267 268 269 275 275 281 284 294 304 304 302 310 308 306 301 304 311
279 277 277 278 277 274 270 267 266 266 269 273 273 275 274 273 276 275 273 263 259 260 264 266 264 265 268 267 260 258 273 278 291 299 294 285 286 297 302 300 296 302 309
278 277 278 279 277 272 268 263 260 265 264 268 272 270 271 271 268 267 263 257 259 260 262 264 262 258 256 256 251 253 268 287 289 285 284 288 298 297 299 296 298 303 303
277 278 278 280 275 272 267 262 256 256 261 260 266 266 266 266 265 261 261 258 257 260 254 259 249 253 245 243 248 258 267 275 282 283 289 294 297 299 298 299 300 304 308
279 278 279 279 276 271 265 260 255 257 262 260 262 268 268 268 267 260 260 254 255 255 240 235 235 236 233 239 254 255 265 281 283 284 287 292 297 300 311 326 333 338 342
280 280 280 277 271 265 260 257 253 256 260 263 257 253 265 244 250 250 232 237 231 221 223 229 236 233 242 241 243 253 271 276 279 279 285 293 309 321 341 353 357 355 347
284 283 280 273 267 259 252 250 250 255 258 260 261 258 258 259 249 229 221 199 201 215 223 224 224 232 231 233 242 257 260 259 253 242 251 316 356 359 4 3 358 354 357
287 286 281 270 263 258 254 253 253 255 258 261 257 264 261 260 256 244 230 220 208 204 205 210 224 223 227 234 244 243 230 212 200 179 158 135 21 14 6 5 4 0 357
288 286 276 268 263 260 260 261 261 262 258 264 264 261 253 254 256 246 233 221 211 211 212 212 214 218 226 230 227 214 200 188 178 177 179 158 33 16 17 14 10 8 7
288 291 285 270 266 268 266 266 264 262 260 264 265 261 252 251 256 259 239 232 219 219 210 210 214 212 220 215 207 204 195 190 189 193 191 215 330 2 8 5 359 357 358
284 288 289 282 273 269 268 271 265 260 260 264 266 263 263 261 260 254 249 240 222 216 210 210 209 211 215 208 202 199 196 195 198 207 215 242 277 305 329 344 348 349 348
283 286 287 285 279 275 273 270 267 267 266 266 267 269 268 264 260 255 246 255 237 216 214 217 213 215 210 205 201 201 200 200 208 210 215 233 261 308 328 335 336 338 337
281 282 283 284 283 280 277 274 272 270 268 266 265 263 261 258 251 247 245 244 236 234 215 222 219 216 209 205 204 202 202 203 212 217 224 241 259 283 300 315 328 331 328
283 282 282 282 281 280 278 275 272 270 267 264 260 257 255 255 254 251 245 241 237 231 231 225 221 213 208 204 203 205 206 211 216 223 227 236 256 272 291 311 320 323 323
283 281 280 279 280 280 278 277 274 270 265 262 259 257 256 254 252 250 246 240 235 231 229 226 215 206 203 203 203 205 208 214 221 222 226 237 261 291 310 321 325 323 326
286 283 279 277 277 276 274 272 268 265 262 260 259 258 257 255 253 250 245 239 233 227 223 225 209 204 203 200 201 203 208 213 218 223 235 248 276 293 303 310 314 312 315
282 282 280 278 277 275 272 269 265 262 260 259 258 256 254 252 250 247 243 237 231 226 220 216 210 205 204 201 201 204 209 216 218 224 232 251 269 277 286 297 300 300 303
281 280 278 277 275 273 271 267 263 260 258 258 256 254 251 248 246 244 239 235 230 224 219 213 208 205 204 203 203 206 215 218 219 222 229 243 256 262 271 284 294 295 296
287 281 277 275 274 272 270 267 264 261 259 256 255 253 250 247 244 241 237 232 227 222 220 214 211 211 212 212 212 212 217 219 212 216 225 233 244 249 266 283 286 287 288
293 286 280 274 272 272 272 271 266 262 259 256 252 248 244 240 238 238 238 237 234 232 226 219 219 215 216 217 222 220 224 232 236 229 237 242 243 255 273 284 283 282 281
293 289 285 279 273 271 271 270 268 264 259 256 251 246 243 238 232 227 224 222 222 228 228 225 221 219 221 220 222 226 230 239 249 254 254 259 238 253 272 278 272 265 270
290 283 281 278 275 275 270 267 267 263 257 255 250 244 238 235 233 233 226 222 215 214 215 216 216 217 216 216 219 224 229 240 251 262 268 266 266 272 273 257 248 248 292
291 288 282 274 271 271 271 261 261 264 256 249 245 242 240 237 236 230 227 237 226 217 215 213 212 212 211 210 212 218 218 230 252 272 259 280 290 294 285 252 223 279 295